Regional Weather Roundup
Issued by NWS Charleston, SC

Current Version | Previous Version | Text Only | Print | Product List | Glossary Off
Versions: 1 2 3 4 5 6 7 8 9 10 11 12 13 14 15 16 17 18 19 20 21 22 23 24 25 26 27 28 29 30 31 32 33 34 35 36 37 38 39 40 41 42 43 44 45 46 47 48 49 50

000
ASUS42 KCHS 271713
RWRCHS

REGIONAL WEATHER ROUNDUP
NATIONAL WEATHER SERVICE CHARLESTON SC
100 PM EDT WED JUL 27 2016

NOTE: "FAIR" INDICATES FEW OR NO CLOUDS BELOW 12,000 FEET WITH NO
SIGNIFICANT WEATHER AND/OR OBSTRUCTIONS TO VISIBILITY.

NOT ALL STATIONS ARE QUALITY CONTROLLED. USE DATA WITH CAUTION...
ESPECIALLY DEWPOINT OBSERVATIONS.

SCZ027-030-031-034>040-042>050-271800-
...SOUTHEAST SOUTH CAROLINA...

CITY           SKY/WX    TMP DP  RH WIND       PRES   REMARKS
N CHARLESTON   MOSUNNY   93  73  52 W8        30.04S HX 102
WATERFRONT PRK   N/A     90  74  59 VRB3      30.03S HX  99
MOUNT PLEASANT FAIR      91  75  59 CALM      30.04S HX 102
JOHNS ISLAND   FAIR      93  75  55 SW7G14    30.05S HX 104
PINOPOLIS        N/A     90  75  62 VRB2      29.95F HX 100
MONCKS CORNER  FAIR      90  70  51 W3        30.04S HX  95
SUMMERVILLE    FAIR      91  73  55 W9        30.05S HX 100
BEAUFORT MCAS  PTSUNNY   95  72  47 W9        30.05F HX 103
BEAUFORT ARPT  FAIR      91  73  55 W6        30.05F HX 100
HILTON HEAD IS MOSUNNY   99  73  44 W8G14     30.07S HX 109
WALTERBORO     MOSUNNY   93  72  49 SW7       30.05F HX 100
ALLENDALE      FAIR      90  73  58 VRB7G15   30.04F HX  98

...SOUTHERN MIDLANDS AND PEE DEE...

CITY           SKY/WX    TMP DP  RH WIND       PRES   REMARKS
GEORGETOWN     FAIR      91  73  55 SW8       30.04S HX 100
KINGSTREE      FAIR      93  72  49 S6        30.02F HX 100
ORANGEBURG     SUNNY     94  74  52 SW8       30.04F HX 104
BARNWELL       NOT AVBL
AIKEN          FAIR      90  70  51 SW9G16    30.08F HX  95
MANNING        FAIR      91  72  52 W7        30.03F HX  98
COLUMBIA       MOSUNNY   97  71  42 S8        30.00F HX 104
SUMTER         MOSUNNY   93  74  54 SW7       30.00F HX 103
FLORENCE       SUNNY     94  74  52 W10       30.01F HX 104
MYRTLE BEACH   SUNNY     95  72  46 W7        30.03F HX 103
N MYRTLE BEACH SUNNY     94  74  52 VRB7      30.01S HX 104

$$

GAZ063-065-086>088-099>101-113>116-118-119-134>141-150-271800-
...SOUTHEAST GEORGIA...

CITY           SKY/WX    TMP DP  RH WIND       PRES   REMARKS
SAVANNAH ARPT  MOSUNNY   93  72  50 W12       30.06F HX 101
HUNTER AAF     SUNNY     93  77  60 W8G18     30.04F HX 106
FORT STEWART   MOSUNNY   92  71  50 W7        30.05F HX  99
STATESBORO     PTSUNNY   91  76  60 W9        30.07F HX 103
SYLVANIA       NOT AVBL
CLAXTON        FAIR      92  74  54 SW8       30.07F HX 101

...CSRA...CENTRAL AND FAR SOUTHEAST GEORGIA...

CITY           SKY/WX    TMP DP  RH WIND       PRES   REMARKS
THOMSON        NOT AVBL
AUGUSTA-BUSH   MOSUNNY   94  71  47 W8        30.03F HX 101
AUGUSTA-DANIEL PTSUNNY   94  72  48 VRB7      30.06F HX 102
SWAINSBORO     PTSUNNY   90  70  51 W8        30.08F HX  95
VIDALIA        MOSUNNY   93  68  43 SW10      30.08F HX  97
EASTMAN        FAIR      90  60  36 W8        30.11F HX  90
HAZLEHURST     PTSUNNY   92  73  53 CALM      30.08F HX 101
ALMA           PTSUNNY   91  70  49 SW9       30.09S HX  96
WAYCROSS       MOSUNNY   96  74  48 W7G17     30.09F HX 107
JESUP          FAIR      93  75  55 W6        30.09S HX 104
BAXLEY         FAIR      91  75  59 SW8       30.08F HX 102
BRUNSWICK      PTSUNNY   91  75  59 W9        30.09S HX 102
SAINT SIMONS   MOSUNNY   93  70  46 W10       30.08F HX  99

$$

SCZ027-028-034-036>038-045-046-048>050-GAZ119-141-271800-
...LAKE AND SUPPLEMENTAL COASTAL OBSERVATIONS...

STATION/POSITION TIME  TEMP    WIND        PRES    WAVE   SWELL
                       AIR SEA DIR/SP/G            HT/PER HT/PER/DIR
                 (UTC) (F)     (DEG/KT/KT) (MB)    (FT/S) (FT/S/D)
WINYAH BAY       1545   90     270/  7     1016.0
LAKE MURRAY      1600   89     220/  7/ 12 1016.3S
ACE BASIN NERRS  NOT AVBL
FORT PULASKI     1600   89 87  240/  7/ 11 1018.7S
SAPELO ISLAND    1600   90     240/  6     1019.0S

$$

ANZ835-935-AMZ111-154-330-350-352-354-370-450-454-472-271800-
...C-MAN AND BUOY OBSERVATIONS...

STATION/POSITION TIME  TEMP    WIND        PRES    WAVE   SWELL
                       AIR SEA DIR/SP/G            HT/PER HT/PER/DIR
                 (UTC) (F)     (DEG/KT/KT) (MB)    (FT/S) (FT/S/D)
BUOY 41004       1650   84 86  240/ 12/ 14 1017.4F   3/ 5   2/120/ 8
BUOY 41008       1650   85 87  210/ 10/ 12 1018.5F   1/ 5   2/160/ 5
FOLLY BEACH CMAN 1600   89     210/ 10/ 11 1017.8R
CAPERS NEARSHORE 1608   85 84  220/ 10/ 12 1017.4S
FRIPP NEARSHORE  1608   86 87  250/ 10/ 12 1017.4F


STATION/POSITION TIME  TEMP    WIND        PRES    WAVE   SWELL
                       AIR SEA DIR/SP/G            HT/PER HT/PER/DIR
                 (UTC) (F)     (DEG/KT/KT) (MB)    (FT/S) (FT/S/D)
5E ST. MARYS GA  1701      88                N/A     1/ 4
FRYING PAN BUOY  1600   84 85  250/ 12/ 16 1016.5S
BUOY 41025       1650   84 85  260/ 10/ 10 1015.0S   3/ 6   3/220/ 6
CAPE LOOKOUT NC  1600   85     250/ 12/ 14 1015.0F
BUOY 41002       1650   85 85  290/ 12/ 14 1017.8R   4/ 5   2/140/ 8
BUOY 41010       1620   85 87  220/  6/  8 1019.9R
ST AUGUSTINE FL  1700   84 86   60/  6/  7 1020.2F


$$




USA.gov is the U.S. government's official web portal to all federal, state and local government web resources and services.